Flora, IL

4:17 PM CDT on April 27, 2017 (GMT -0500)
Flora Municipal

Weather History for KFOA - October, 2012

Change the Weather History Date:

Thursday, October 18, 2012

  Actual Average (KSLO) Record (KSLO)
Temperature  
Mean Temperature 56 °F -  
Max Temperature 64 °F 65 °F 84 °F (2016)
Min Temperature 49 °F 42 °F 29 °F (1959)
Degree Days  
Heating Degree Days 8    
Growing Degree Days 6 (Base 50)    
Moisture  
Dew Point 40 °F    
Average Humidity 58    
Maximum Humidity 93    
Minimum Humidity 30    
Precipitation  
Precipitation 0.00 in - - ()
Sea Level Pressure  
Sea Level Pressure 29.61 in    
Wind  
Wind Speed 11 mph (SW)    
Max Wind Speed 25 mph    
Max Gust Speed 32 mph    
Visibility 10 miles    
Events      
Averages and records for this station are not official NWS values.
T = Trace of Precipitation, MM = Missing Value Source: NWS Daily Summary

Daily Weather History Graph

Daily Weather History Graph

Search for Another Location

Airport or City:

Trip Planner

Search our weather history database for the weather conditions in past years. The results will help you decide how hot, cold, wet, or windy it might be!

Date:

Astronomy

Oct. 18, 2012 Rise Set
Actual Time 7:06 AM CDT 6:10 PM CDT
Civil Twilight 6:39 AM CDT 6:37 PM CDT
Nautical Twilight 6:08 AM CDT 7:08 PM CDT
Astronomical Twilight 5:37 AM CDT 7:39 PM CDT
Moon 10:45 AM CDT (10/18) 8:47 PM CDT (10/18)
Length of Visible Light 11h 57m
Length of Day
11h 04m
Waxing Crescent, 14% of the Moon is Illuminated
Oct 18
Waxing Crescent
Oct 21
First Quarter
Oct 29
Full
Nov 6
Last Quarter
Nov 13
New

Hourly Weather History & Observations

Time (CDT) Temp. Dew Point Humidity Pressure Visibility Wind Dir Wind Speed Gust Speed Precip Events Conditions
12:35 AM 55.6 °F 53.2 °F 92% 29.54 in 10.0 mi West 5.8 mph - N/A   Overcast
12:55 AM 55.6 °F 53.6 °F 93% 29.55 in 10.0 mi West 10.4 mph - N/A   Mostly Cloudy
1:15 AM 55.2 °F 52.7 °F 91% 29.55 in 10.0 mi West 11.5 mph 17.3 mph N/A   Scattered Clouds
1:35 AM 54.9 °F 51.8 °F 89% 29.56 in 10.0 mi West 12.7 mph - N/A   Clear
1:55 AM 54.7 °F 51.3 °F 88% 29.56 in 10.0 mi West 10.4 mph - N/A   Clear
2:15 AM 54.0 °F 50.9 °F 89% 29.56 in 10.0 mi West 10.4 mph - N/A   Clear
2:35 AM 53.4 °F 50.7 °F 91% 29.56 in 10.0 mi West 9.2 mph - N/A   Clear
2:55 AM 52.9 °F 50.5 °F 92% 29.56 in 10.0 mi WSW 8.1 mph - N/A   Clear
3:15 AM 52.9 °F 50.5 °F 92% 29.57 in 10.0 mi WSW 9.2 mph - N/A   Clear
3:35 AM 52.9 °F 50.4 °F 91% 29.58 in 10.0 mi WSW 9.2 mph - N/A   Clear
3:55 AM 52.9 °F 50.2 °F 91% 29.58 in 10.0 mi WSW 12.7 mph - N/A   Clear
4:15 AM 52.2 °F 49.3 °F 90% 29.59 in 10.0 mi WSW 11.5 mph - N/A   Clear
4:35 AM 51.8 °F 48.7 °F 89% 29.60 in 10.0 mi WSW 9.2 mph - N/A   Clear
4:55 AM 51.3 °F 47.7 °F 87% 29.61 in 10.0 mi WSW 10.4 mph - N/A   Clear
5:15 AM 51.1 °F 47.1 °F 86% 29.61 in 10.0 mi SW 9.2 mph - N/A   Clear
5:35 AM 50.5 °F 46.4 °F 86% 29.60 in 10.0 mi SW 8.1 mph - N/A   Clear
5:55 AM 49.5 °F 45.7 °F 87% 29.61 in 10.0 mi SW 6.9 mph - N/A   Clear
6:15 AM 50.0 °F 46.4 °F 87% 29.61 in 10.0 mi SW 8.1 mph - N/A   Clear
6:55 AM 49.1 °F 45.5 °F 87% 29.61 in 10.0 mi SW 5.8 mph - N/A   Clear
7:55 AM 50.2 °F 45.0 °F 82% 29.62 in 10.0 mi SW 10.4 mph - N/A   Clear
8:15 AM 51.3 °F 44.8 °F 78% 29.62 in 10.0 mi SW 12.7 mph - N/A   Clear
8:35 AM 52.2 °F 45.1 °F 77% 29.63 in 10.0 mi SW 15.0 mph - N/A   Clear
8:55 AM 53.6 °F 44.6 °F 72% 29.63 in 10.0 mi SW 15.0 mph 18.4 mph N/A   Clear
9:15 AM 54.7 °F 44.2 °F 68% 29.64 in 10.0 mi WSW 11.5 mph 18.4 mph N/A   Clear
9:35 AM 56.3 °F 43.3 °F 62% 29.64 in 10.0 mi WSW 18.4 mph - N/A   Clear
9:55 AM 57.2 °F 42.6 °F 58% 29.64 in 10.0 mi WSW 10.4 mph 18.4 mph N/A   Clear
10:15 AM 58.1 °F 41.0 °F 53% 29.64 in 10.0 mi SW 13.8 mph 19.6 mph N/A   Clear
10:35 AM 58.3 °F 39.7 °F 50% 29.64 in 10.0 mi WSW 17.3 mph 24.2 mph N/A   Clear
10:55 AM 59.2 °F 39.7 °F 49% 29.64 in 10.0 mi SW 16.1 mph 19.6 mph N/A   Clear
11:15 AM 60.1 °F 37.9 °F 44% 29.64 in 10.0 mi SW 13.8 mph 21.9 mph N/A   Clear
11:35 AM 61.0 °F 37.8 °F 42% 29.63 in 10.0 mi SW 13.8 mph 20.7 mph N/A   Clear
11:55 AM 63.1 °F 37.8 °F 39% 29.63 in 10.0 mi WSW 15.0 mph 20.7 mph N/A   Clear
12:15 PM 62.1 °F 32.0 °F 32% 29.63 in 10.0 mi WSW 20.7 mph 32.2 mph N/A   Clear
12:35 PM 62.8 °F 32.7 °F 32% 29.63 in 10.0 mi WSW 16.1 mph 32.2 mph N/A   Clear
12:55 PM 63.3 °F 32.9 °F 32% 29.62 in 10.0 mi WSW 15.0 mph 27.6 mph N/A   Clear
1:15 PM 63.3 °F 32.9 °F 32% 29.61 in 10.0 mi SW 17.3 mph 27.6 mph N/A   Clear
1:35 PM 62.8 °F 32.2 °F 32% 29.61 in 10.0 mi WSW 16.1 mph 28.8 mph N/A   Scattered Clouds
1:55 PM 63.5 °F 32.9 °F 32% 29.61 in 10.0 mi SW 16.1 mph 25.3 mph N/A   Scattered Clouds
2:15 PM 63.5 °F 31.6 °F 30% 29.60 in 10.0 mi WSW 25.3 mph 28.8 mph N/A   Scattered Clouds
2:35 PM 63.5 °F 31.5 °F 30% 29.60 in 10.0 mi SW 25.3 mph 31.1 mph N/A   Clear
2:55 PM 63.5 °F 31.8 °F 31% 29.61 in 10.0 mi WSW 21.9 mph 28.8 mph N/A   Clear
3:15 PM 63.5 °F 32.4 °F 31% 29.61 in 10.0 mi WSW 16.1 mph 28.8 mph N/A   Clear
3:35 PM 63.5 °F 31.8 °F 31% 29.61 in 10.0 mi WSW 21.9 mph 26.5 mph N/A   Clear
3:55 PM 64.0 °F 31.6 °F 30% 29.61 in 10.0 mi SW 20.7 mph 32.2 mph N/A   Clear
4:15 PM 63.3 °F 31.5 °F 30% 29.60 in 10.0 mi SW 17.3 mph 24.2 mph N/A   Clear
4:35 PM 62.1 °F 31.3 °F 31% 29.61 in 10.0 mi WSW 15.0 mph 24.2 mph N/A   Clear
4:55 PM 61.9 °F 32.7 °F 34% 29.61 in 10.0 mi WSW 11.5 mph - N/A   Clear
5:15 PM 61.3 °F 32.4 °F 34% 29.61 in 10.0 mi SW 15.0 mph 23.0 mph N/A   Clear
5:35 PM 60.8 °F 32.4 °F 34% 29.62 in 10.0 mi SW 13.8 mph 17.3 mph N/A   Scattered Clouds
5:55 PM 60.6 °F 32.4 °F 35% 29.62 in 10.0 mi SW 11.5 mph 18.4 mph N/A   Mostly Cloudy
6:15 PM 59.7 °F 33.6 °F 37% 29.63 in 10.0 mi SW 8.1 mph - N/A   Overcast
6:35 PM 59.0 °F 35.6 °F 42% 29.63 in 10.0 mi SW 6.9 mph - N/A   Overcast
6:55 PM 57.7 °F 37.2 °F 46% 29.63 in 10.0 mi SW 6.9 mph - N/A   Overcast
7:15 PM 57.7 °F 37.2 °F 46% 29.64 in 10.0 mi SW 5.8 mph - N/A   Mostly Cloudy
7:35 PM 57.9 °F 36.3 °F 44% 29.64 in 10.0 mi WSW 5.8 mph - N/A   Overcast
7:55 PM 58.5 °F 35.4 °F 42% 29.65 in 10.0 mi West 11.5 mph 16.1 mph N/A   Overcast
8:15 PM 59.0 °F 35.8 °F 42% 29.64 in 10.0 mi SW 10.4 mph 20.7 mph N/A   Overcast
8:35 PM 58.8 °F 36.5 °F 43% 29.64 in 10.0 mi West 11.5 mph 17.3 mph N/A   Mostly Cloudy
8:55 PM 57.9 °F 37.9 °F 47% 29.63 in 10.0 mi SW 6.9 mph - N/A   Mostly Cloudy
9:35 PM 57.2 °F 37.6 °F 48% 29.60 in 10.0 mi SSW 6.9 mph - N/A   Overcast
9:55 PM 56.5 °F 38.5 °F 51% 29.59 in 10.0 mi South 6.9 mph - N/A   Overcast
10:15 PM 56.3 °F 39.2 °F 53% 29.59 in 10.0 mi South 9.2 mph - N/A   Overcast
10:35 PM 55.6 °F 38.8 °F 53% 29.59 in 10.0 mi South 9.2 mph - N/A   Overcast
10:55 PM 55.6 °F 38.7 °F 53% 29.58 in 10.0 mi SSW 9.2 mph - N/A   Overcast